Track ONEWEB-0050 now! 10-day predictions ONEWEB-0050 is classified as:
1 45453U 20020AF 21110.45365278 .00000541 00000-0 47150-4 0 9991 2 45453 87.5495 13.7871 0024193 312.9617 46.9584 14.94576596 59080